START_TIME,STEP,MOV.,H8,t_acc.,H43,t_acc.,M25,t_acc.,H9,t_acc.
1979-03-07 12:00:27.260 ,3,1,0.,12.0,0.,12.0,0.,12.0,0.,12.0
1979-03-07 12:00:39.260 ,3,1,0.,12.0,0.,12.0,0.,12.0,0.,12.0
1979-03-07 12:00:51.260 ,7,1,1.,12.0,0.,12.0,0.,12.0,0.,12.0
1979-03-07 12:01:03.260 ,7,1,1.,12.0,0.,12.0,0.,12.0,0.,12.0
1979-03-07 12:01:15.260 ,4,1,0.,12.0,0.,12.0,0.,12.0,0.,12.0
1979-03-07 12:01:27.260 ,4,1,0.,12.0,0.,12.0,0.,12.0,0.,12.0
1979-03-07 12:01:39.260 ,0,1,0.,12.0,0.,12.0,0.,12.0,0.,12.0
1979-03-07 12:01:51.260 ,0,1,0.,12.0,0.,12.0,0.,12.0,0.,12.0
1979-03-07 12:02:03.260 ,3,1,0.,12.0,0.,12.0,0.,12.0,0.,12.0
1979-03-07 12:02:15.260 ,3,1,0.,12.0,0.,12.0,0.,12.0,0.,12.0
1979-03-07 12:02:27.260 ,7,1,0.,12.0,0.,12.0,0.,12.0,0.,12.0
1979-03-07 12:02:39.260 ,7,1,0.,12.0,0.,12.0,0.,12.0,0.,12.0
1979-03-07 12:02:51.260 ,4,1,0.,12.0,0.,12.0,0.,12.0,0.,12.0
1979-03-07 12:03:03.260 ,4,1,0.,12.0,0.,12.0,0.,12.0,0.,12.0
1979-03-07 12:03:15.260 ,0,1,0.,12.0,0.,12.0,0.,12.0,0.,12.0
1979-03-07 12:03:27.260 ,0,1,0.,12.0,0.,12.0,0.,12.0,0.,12.0
1979-03-07 12:03:39.260 ,3,1,0.,12.0,0.,12.0,0.,12.0,0.,12.0
1979-03-07 12:03:51.260 ,3,1,0.,12.0,0.,12.0,0.,12.0,0.,12.0
1979-03-07 12:04:03.260 ,7,1,1.,12.0,0.,12.0,0.,12.0,0.,12.0
1979-03-07 12:04:15.260 ,7,1,0.,12.0,0.,12.0,0.,12.0,0.,12.0
1979-03-07 12:04:27.260 ,4,1,0.,12.0,0.,12.0,0.,12.0,0.,12.0
1979-03-07 12:04:39.260 ,4,1,0.,12.0,0.,12.0,0.,12.0,0.,12.0
1979-03-07 12:04:51.260 ,0,1,0.,12.0,0.,12.0,0.,12.0,0.,12.0
1979-03-07 12:05:03.260 ,0,1,0.,12.0,0.,12.0,0.,12.0,0.,12.0
1979-03-07 12:05:15.260 ,3,1,0.,12.0,0.,12.0,0.,12.0,0.,12.0
1979-03-07 12:05:27.260 ,3,1,0.,12.0,0.,12.0,0.,12.0,0.,12.0
1979-03-07 12:05:39.260 ,7,1,1.,12.0,0.,12.0,0.,12.0,0.,12.0
1979-03-07 12:05:51.260 ,7,1,0.,12.0,0.,12.0,0.,12.0,0.,12.0
1979-03-07 12:06:03.260 ,4,1,0.,12.0,0.,12.0,0.,12.0,0.,12.0
1979-03-07 12:06:15.260 ,4,1,1.,12.0,0.,12.0,0.,12.0,0.,12.0
1979-03-07 12:06:27.260 ,0,1,0.,12.0,0.,12.0,0.,12.0,0.,12.0
1979-03-07 12:06:39.260 ,0,1,0.,12.0,0.,12.0,0.,12.0,0.,12.0
1979-03-07 12:06:51.260 ,3,1,0.,12.0,0.,12.0,0.,12.0,0.,12.0
1979-03-07 12:07:03.260 ,3,1,0.,12.0,0.,12.0,0.,12.0,0.,12.0
1979-03-07 12:07:15.260 ,7,1,0.,12.0,0.,12.0,0.,12.0,0.,12.0
1979-03-07 12:07:27.260 ,7,1,0.,12.0,0.,12.0,0.,12.0,0.,12.0
1979-03-07 12:07:39.260 ,4,1,0.,12.0,0.,12.0,0.,12.0,0.,12.0
1979-03-07 12:07:51.260 ,4,1,0.,12.0,0.,12.0,0.,12.0,0.,12.0
1979-03-07 12:08:03.260 ,0,1,0.,12.0,0.,12.0,0.,12.0,0.,12.0
1979-03-07 12:08:15.260 ,0,1,0.,12.0,0.,12.0,0.,12.0,0.,12.0
1979-03-07 12:08:27.260 ,3,1,0.,12.0,0.,12.0,0.,12.0,0.,12.0
1979-03-07 12:08:39.260 ,3,1,0.,12.0,0.,12.0,0.,12.0,0.,12.0
1979-03-07 12:08:51.260 ,7,1,0.,12.0,0.,12.0,0.,12.0,0.,12.0
1979-03-07 12:09:03.260 ,7,1,0.,12.0,0.,12.0,0.,12.0,0.,12.0
1979-03-07 12:09:15.260 ,4,1,0.,12.0,0.,12.0,0.,12.0,0.,12.0
1979-03-07 12:09:27.260 ,4,1,0.,12.0,0.,12.0,0.,12.0,0.,12.0
1979-03-07 12:09:39.260 ,0,1,0.,12.0,0.,12.0,0.,12.0,0.,12.0
1979-03-07 12:09:51.260 ,0,1,0.,12.0,0.,12.0,0.,12.0,0.,12.0
1979-03-07 12:10:03.260 ,3,1,0.,12.0,0.,12.0,0.,12.0,0.,12.0
1979-03-07 12:10:15.260 ,3,1,0.,12.0,0.,12.0,0.,12.0,0.,12.0
1979-03-07 12:10:27.260 ,7,1,0.,12.0,0.,12.0,0.,12.0,0.,12.0
1979-03-07 12:10:39.260 ,7,1,0.,12.0,0.,12.0,0.,12.0,0.,12.0
1979-03-07 12:10:51.260 ,4,1,0.,12.0,0.,12.0,0.,12.0,0.,12.0
1979-03-07 12:11:03.260 ,4,1,0.,12.0,0.,12.0,0.,12.0,0.,12.0
1979-03-07 12:11:15.260 ,0,1,0.,12.0,0.,12.0,0.,12.0,0.,12.0
1979-03-07 12:11:27.260 ,0,1,0.,12.0,0.,12.0,0.,12.0,0.,12.0
1979-03-07 12:11:39.260 ,3,1,0.,12.0,0.,12.0,0.,12.0,0.,12.0
1979-03-07 12:11:51.260 ,3,1,1.,12.0,0.,12.0,0.,12.0,0.,12.0
1979-03-07 12:12:03.260 ,7,1,1.,12.0,0.,12.0,0.,12.0,0.,12.0
1979-03-07 12:12:15.260 ,7,1,1.,12.0,0.,12.0,0.,12.0,0.,12.0
1979-03-07 12:12:27.260 ,4,1,0.,12.0,0.,12.0,0.,12.0,0.,12.0
1979-03-07 12:12:39.260 ,4,1,0.,12.0,0.,12.0,0.,12.0,0.,12.0
1979-03-07 12:12:51.260 ,0,1,0.,12.0,0.,12.0,0.,12.0,0.,12.0
1979-03-07 12:13:03.260 ,0,1,0.,12.0,0.,12.0,0.,12.0,0.,12.0
1979-03-07 12:13:15.260 ,3,1,0.,12.0,0.,12.0,0.,12.0,0.,12.0
1979-03-07 12:13:27.260 ,3,1,1.,12.0,0.,12.0,0.,12.0,0.,12.0
1979-03-07 12:13:39.260 ,7,1,1.,12.0,0.,12.0,0.,12.0,0.,12.0
1979-03-07 12:13:51.260 ,7,1,0.,12.0,0.,12.0,0.,12.0,0.,12.0
1979-03-07 12:14:03.260 ,4,1,0.,12.0,0.,12.0,0.,12.0,0.,12.0
1979-03-07 12:14:15.260 ,4,1,0.,12.0,0.,12.0,0.,12.0,0.,12.0
1979-03-07 12:14:27.260 ,0,1,2.,12.0,0.,12.0,0.,12.0,0.,12.0
1979-03-07 12:14:39.260 ,0,1,1.,12.0,0.,12.0,0.,12.0,0.,12.0
1979-03-07 12:14:51.260 ,3,1,0.,12.0,0.,12.0,0.,12.0,0.,12.0
1979-03-07 12:15:03.260 ,3,1,0.,12.0,0.,12.0,0.,12.0,0.,12.0
1979-03-07 12:15:15.260 ,7,1,0.,12.0,0.,12.0,0.,12.0,0.,12.0
1979-03-07 12:15:27.260 ,7,1,0.,12.0,0.,12.0,0.,12.0,0.,12.0
1979-03-07 12:15:39.260 ,4,1,0.,12.0,0.,12.0,0.,12.0,0.,12.0
1979-03-07 12:15:51.260 ,4,1,0.,12.0,0.,12.0,0.,12.0,0.,12.0
1979-03-07 12:16:03.260 ,0,1,0.,12.0,0.,12.0,0.,12.0,0.,12.0
1979-03-07 12:16:15.260 ,0,1,0.,12.0,0.,12.0,0.,12.0,0.,12.0
1979-03-07 12:16:27.260 ,3,1,0.,12.0,0.,12.0,0.,12.0,0.,12.0
1979-03-07 12:16:39.260 ,3,1,1.,12.0,0.,12.0,0.,12.0,0.,12.0
1979-03-07 12:16:51.260 ,7,1,1.,12.0,0.,12.0,0.,12.0,0.,12.0
1979-03-07 12:17:03.260 ,7,1,0.,12.0,0.,12.0,0.,12.0,0.,12.0
1979-03-07 12:17:15.260 ,4,1,0.,12.0,0.,12.0,0.,12.0,0.,12.0
1979-03-07 12:17:27.260 ,4,1,1.,12.0,0.,12.0,0.,12.0,0.,12.0
1979-03-07 12:17:39.260 ,0,1,0.,12.0,0.,12.0,0.,12.0,0.,12.0
1979-03-07 12:17:51.260 ,0,1,0.,12.0,0.,12.0,0.,12.0,0.,12.0
1979-03-07 12:18:03.260 ,3,1,0.,12.0,0.,12.0,0.,12.0,0.,12.0
1979-03-07 12:18:15.260 ,3,1,0.,12.0,0.,12.0,0.,12.0,0.,12.0
1979-03-07 12:18:27.260 ,7,1,0.,12.0,0.,12.0,0.,12.0,0.,12.0
1979-03-07 12:18:39.260 ,7,1,0.,12.0,0.,12.0,0.,12.0,0.,12.0
1979-03-07 12:18:51.260 ,4,1,0.,12.0,0.,12.0,0.,12.0,0.,12.0
1979-03-07 12:19:03.260 ,4,1,0.,12.0,0.,12.0,0.,12.0,0.,12.0
1979-03-07 12:19:15.260 ,0,1,0.,12.0,0.,12.0,0.,12.0,0.,12.0
1979-03-07 12:19:27.260 ,0,1,0.,12.0,0.,12.0,0.,12.0,0.,12.0
1979-03-07 12:19:39.260 ,3,1,1.,12.0,0.,12.0,0.,12.0,0.,12.0
1979-03-07 12:19:51.260 ,3,1,1.,12.0,0.,12.0,0.,12.0,0.,12.0
1979-03-07 12:20:03.260 ,7,1,0.,12.0,0.,12.0,0.,12.0,0.,12.0
1979-03-07 12:20:15.260 ,7,1,0.,12.0,0.,12.0,0.,12.0,0.,12.0
1979-03-07 12:20:27.260 ,4,1,0.,12.0,0.,12.0,0.,12.0,0.,12.0
1979-03-07 12:20:39.260 ,4,1,0.,12.0,0.,12.0,0.,12.0,0.,12.0
1979-03-07 12:20:51.260 ,0,1,1.,12.0,0.,12.0,0.,12.0,0.,12.0
1979-03-07 12:21:03.260 ,0,1,0.,12.0,0.,12.0,0.,12.0,0.,12.0
1979-03-07 12:21:15.260 ,3,1,0.,12.0,0.,12.0,0.,12.0,0.,12.0
1979-03-07 12:21:27.260 ,3,1,0.,12.0,0.,12.0,0.,12.0,0.,12.0
1979-03-07 12:21:39.260 ,7,1,0.,12.0,0.,12.0,0.,12.0,0.,12.0
1979-03-07 12:21:51.260 ,7,1,0.,12.0,0.,12.0,0.,12.0,0.,12.0
1979-03-07 12:22:03.260 ,4,1,0.,12.0,0.,12.0,0.,12.0,0.,12.0
1979-03-07 12:22:15.260 ,4,1,1.,12.0,0.,12.0,0.,12.0,0.,12.0
1979-03-07 12:22:27.260 ,0,1,0.,12.0,0.,12.0,0.,12.0,0.,12.0
1979-03-07 12:22:39.260 ,0,1,0.,12.0,0.,12.0,0.,12.0,0.,12.0
1979-03-07 12:22:51.260 ,3,1,0.,12.0,0.,12.0,0.,12.0,0.,12.0
1979-03-07 12:23:03.260 ,3,1,1.,12.0,0.,12.0,0.,12.0,0.,12.0
1979-03-07 12:23:15.260 ,7,1,1.,12.0,0.,12.0,0.,12.0,0.,12.0
1979-03-07 12:23:27.260 ,7,1,1.,12.0,0.,12.0,0.,12.0,0.,12.0
1979-03-07 12:23:39.260 ,4,1,0.,12.0,0.,12.0,0.,12.0,0.,12.0
1979-03-07 12:23:51.260 ,4,1,0.,12.0,0.,12.0,0.,12.0,0.,12.0
1979-03-07 12:24:03.260 ,0,1,1.,12.0,0.,12.0,0.,12.0,0.,12.0
1979-03-07 12:24:15.260 ,0,1,0.,12.0,0.,12.0,0.,12.0,0.,12.0
1979-03-07 12:24:27.260 ,3,1,1.,12.0,0.,12.0,0.,12.0,0.,12.0
1979-03-07 12:24:39.260 ,3,1,0.,12.0,0.,12.0,0.,12.0,0.,12.0
1979-03-07 12:24:51.260 ,7,1,1.,12.0,0.,12.0,0.,12.0,0.,12.0
1979-03-07 12:25:03.260 ,7,1,0.,12.0,0.,12.0,0.,12.0,0.,12.0
1979-03-07 12:25:15.260 ,4,1,0.,12.0,0.,12.0,0.,12.0,0.,12.0
1979-03-07 12:25:27.260 ,4,1,0.,12.0,0.,12.0,0.,12.0,0.,12.0
1979-03-07 12:25:39.260 ,0,1,0.,12.0,0.,12.0,0.,12.0,0.,12.0
1979-03-07 12:25:51.260 ,0,1,1.,12.0,0.,12.0,0.,12.0,0.,12.0
1979-03-07 12:26:03.260 ,3,1,0.,12.0,0.,12.0,0.,12.0,0.,12.0
1979-03-07 12:26:15.260 ,3,1,1.,12.0,0.,12.0,0.,12.0,0.,12.0
1979-03-07 12:26:27.260 ,7,1,0.,12.0,0.,12.0,0.,12.0,0.,12.0
1979-03-07 12:26:39.260 ,7,1,1.,12.0,0.,12.0,0.,12.0,0.,12.0
1979-03-07 12:26:51.260 ,4,1,0.,12.0,0.,12.0,0.,12.0,0.,12.0
1979-03-07 12:27:03.260 ,4,1,0.,12.0,0.,12.0,0.,12.0,0.,12.0
1979-03-07 12:27:15.260 ,0,1,1.,12.0,0.,12.0,0.,12.0,0.,12.0
1979-03-07 12:27:27.260 ,0,1,0.,12.0,0.,12.0,0.,12.0,0.,12.0
1979-03-07 12:27:39.260 ,3,1,0.,12.0,0.,12.0,0.,12.0,0.,12.0
1979-03-07 12:27:51.260 ,3,1,0.,12.0,0.,12.0,0.,12.0,0.,12.0
1979-03-07 12:28:03.260 ,7,1,0.,12.0,0.,12.0,0.,12.0,0.,12.0
1979-03-07 12:28:15.260 ,7,1,0.,12.0,0.,12.0,0.,12.0,0.,12.0
1979-03-07 12:28:27.260 ,4,1,0.,12.0,0.,12.0,0.,12.0,0.,12.0
1979-03-07 12:28:39.260 ,4,1,0.,12.0,0.,12.0,0.,12.0,0.,12.0
1979-03-07 12:28:51.260 ,0,1,1.,12.0,0.,12.0,0.,12.0,0.,12.0
1979-03-07 12:29:03.260 ,0,1,0.,12.0,0.,12.0,0.,12.0,0.,12.0
1979-03-07 12:29:15.260 ,3,1,0.,12.0,0.,12.0,0.,12.0,0.,12.0
1979-03-07 12:29:27.260 ,3,1,1.,12.0,0.,12.0,0.,12.0,0.,12.0
1979-03-07 12:29:39.260 ,7,1,1.,12.0,0.,12.0,0.,12.0,0.,12.0
1979-03-07 12:29:51.260 ,7,1,1.,12.0,0.,12.0,0.,12.0,0.,12.0
1979-03-07 12:30:03.260 ,4,1,0.,12.0,0.,12.0,0.,12.0,0.,12.0
1979-03-07 12:30:15.260 ,4,1,1.,12.0,0.,12.0,0.,12.0,0.,12.0
1979-03-07 12:30:27.260 ,0,1,0.,12.0,0.,12.0,0.,12.0,0.,12.0
1979-03-07 12:30:39.260 ,0,1,1.,12.0,0.,12.0,0.,12.0,0.,12.0
1979-03-07 12:30:51.260 ,3,1,1.,12.0,0.,12.0,0.,12.0,0.,12.0
1979-03-07 12:31:03.260 ,3,1,1.,12.0,0.,12.0,0.,12.0,0.,12.0
1979-03-07 12:31:15.260 ,7,1,0.,12.0,0.,12.0,0.,12.0,0.,12.0
1979-03-07 12:31:27.260 ,7,1,0.,12.0,0.,12.0,0.,12.0,0.,12.0
1979-03-07 12:31:39.260 ,4,1,0.,12.0,0.,12.0,0.,12.0,0.,12.0
1979-03-07 12:31:51.260 ,4,1,4.,12.0,0.,12.0,0.,12.0,0.,12.0
1979-03-07 12:32:03.260 ,0,1,0.,12.0,0.,12.0,0.,12.0,0.,12.0
1979-03-07 12:32:15.260 ,0,1,1.,12.0,0.,12.0,0.,12.0,0.,12.0
1979-03-07 12:32:27.260 ,3,1,0.,12.0,0.,12.0,0.,12.0,0.,12.0
1979-03-07 12:32:39.260 ,3,1,0.,12.0,0.,12.0,0.,12.0,0.,12.0
1979-03-07 12:32:51.260 ,7,1,2.,12.0,0.,12.0,0.,12.0,0.,12.0
1979-03-07 12:33:03.260 ,7,1,1.,12.0,0.,12.0,0.,12.0,0.,12.0
1979-03-07 12:33:15.260 ,4,1,0.,12.0,0.,12.0,0.,12.0,0.,12.0
1979-03-07 12:33:27.260 ,4,1,0.,12.0,0.,12.0,0.,12.0,0.,12.0
1979-03-07 12:33:39.260 ,0,1,1.,12.0,0.,12.0,0.,12.0,0.,12.0
1979-03-07 12:33:51.260 ,0,1,0.,12.0,0.,12.0,0.,12.0,0.,12.0
1979-03-07 12:34:03.260 ,3,1,0.,12.0,0.,12.0,0.,12.0,0.,12.0
1979-03-07 12:34:15.260 ,3,1,0.,12.0,0.,12.0,0.,12.0,0.,12.0
1979-03-07 12:34:27.260 ,7,1,0.,12.0,0.,12.0,0.,12.0,0.,12.0
1979-03-07 12:34:39.260 ,7,1,1.,12.0,0.,12.0,0.,12.0,0.,12.0
1979-03-07 12:34:51.260 ,4,1,0.,12.0,0.,12.0,0.,12.0,0.,12.0
1979-03-07 12:35:03.260 ,4,1,1.,12.0,0.,12.0,0.,12.0,0.,12.0
1979-03-07 12:35:15.260 ,0,1,0.,12.0,0.,12.0,0.,12.0,0.,12.0
1979-03-07 12:35:27.260 ,0,1,0.,12.0,0.,12.0,0.,12.0,0.,12.0
1979-03-07 12:35:39.260 ,3,1,0.,12.0,0.,12.0,0.,12.0,0.,12.0
1979-03-07 12:35:51.260 ,3,1,1.,12.0,0.,12.0,0.,12.0,0.,12.0
1979-03-07 12:36:03.260 ,7,1,0.,12.0,0.,12.0,0.,12.0,0.,12.0
1979-03-07 12:36:15.260 ,7,1,0.,12.0,0.,12.0,0.,12.0,0.,12.0
1979-03-07 12:36:27.260 ,4,1,1.,12.0,0.,12.0,0.,12.0,0.,12.0
1979-03-07 12:36:39.260 ,4,1,0.,12.0,0.,12.0,0.,12.0,0.,12.0
1979-03-07 12:36:51.260 ,0,1,1.,12.0,0.,12.0,0.,12.0,0.,12.0
1979-03-07 12:37:03.260 ,0,1,0.,12.0,0.,12.0,0.,12.0,0.,12.0
1979-03-07 12:37:15.260 ,3,1,0.,12.0,0.,12.0,0.,12.0,0.,12.0
1979-03-07 12:37:27.260 ,3,1,1.,12.0,0.,12.0,0.,12.0,0.,12.0
1979-03-07 12:37:39.260 ,7,1,0.,12.0,0.,12.0,0.,12.0,0.,12.0
1979-03-07 12:37:51.260 ,7,1,0.,12.0,0.,12.0,0.,12.0,0.,12.0
1979-03-07 12:38:03.260 ,4,1,0.,12.0,0.,12.0,0.,12.0,0.,12.0
1979-03-07 12:38:15.260 ,4,1,1.,12.0,0.,12.0,0.,12.0,0.,12.0
1979-03-07 12:38:27.260 ,0,0,0.,12.0,0.,12.0,0.,12.0,0.,12.0
1979-03-07 12:38:39.260 ,0,0,3.,12.0,0.,12.0,0.,12.0,0.,12.0
1979-03-07 12:38:51.260 ,1,0,0.,12.0,0.,12.0,0.,12.0,0.,12.0
1979-03-07 12:39:03.260 ,1,0,0.,12.0,0.,12.0,0.,12.0,0.,12.0
1979-03-07 12:39:15.260 ,0,0,2.,12.0,0.,12.0,0.,12.0,0.,12.0
1979-03-07 12:39:27.260 ,0,0,0.,12.0,0.,12.0,0.,12.0,0.,12.0
1979-03-07 12:39:39.260 ,0,0,0.,12.0,0.,12.0,0.,12.0,0.,12.0
1979-03-07 12:39:51.260 ,0,0,0.,12.0,0.,12.0,0.,12.0,0.,12.0
1979-03-07 12:40:03.260 ,1,0,0.,12.0,0.,12.0,0.,12.0,0.,12.0
1979-03-07 12:40:15.260 ,1,0,0.,12.0,0.,12.0,0.,12.0,0.,12.0
1979-03-07 12:40:27.260 ,2,0,1.,12.0,0.,12.0,0.,12.0,0.,12.0
1979-03-07 12:40:39.260 ,2,0,1.,12.0,0.,12.0,0.,12.0,0.,12.0
1979-03-07 12:40:51.260 ,3,0,0.,12.0,0.,12.0,0.,12.0,0.,12.0
1979-03-07 12:41:03.260 ,3,0,1.,12.0,0.,12.0,0.,12.0,0.,12.0
1979-03-07 12:41:15.260 ,4,0,1.,12.0,0.,12.0,0.,12.0,0.,12.0
1979-03-07 12:41:27.260 ,4,0,3.,12.0,0.,12.0,0.,12.0,0.,12.0
1979-03-07 12:41:39.260 ,5,0,0.,12.0,0.,12.0,0.,12.0,0.,12.0
1979-03-07 12:41:51.260 ,5,0,0.,12.0,0.,12.0,0.,12.0,0.,12.0
1979-03-07 12:42:03.260 ,6,0,1.,12.0,0.,12.0,0.,12.0,0.,12.0
1979-03-07 12:42:15.260 ,6,0,1.,12.0,0.,12.0,0.,12.0,0.,12.0
1979-03-07 12:42:27.260 ,7,0,0.,12.0,0.,12.0,0.,12.0,0.,12.0
1979-03-07 12:42:39.260 ,7,0,0.,12.0,0.,12.0,0.,12.0,0.,12.0
1979-03-07 12:42:51.260 ,7,0,0.,12.0,0.,12.0,0.,12.0,0.,12.0
1979-03-07 12:43:03.260 ,7,0,0.,12.0,0.,12.0,0.,12.0,0.,12.0
1979-03-07 12:43:15.260 ,6,0,0.,12.0,0.,12.0,0.,12.0,0.,12.0
1979-03-07 12:43:27.260 ,6,0,0.,12.0,0.,12.0,0.,12.0,0.,12.0
1979-03-07 12:43:39.260 ,5,0,0.,12.0,0.,12.0,0.,12.0,0.,12.0
1979-03-07 12:43:51.260 ,5,0,0.,12.0,0.,12.0,0.,12.0,0.,12.0
1979-03-07 12:44:03.260 ,0,0,1.,12.0,0.,12.0,0.,12.0,0.,12.0
1979-03-07 12:44:15.260 ,0,0,,0,,0,,0,,0
1979-03-07 12:44:27.260 ,0,0,,0,,0,,0,,0
1979-03-07 12:44:39.260 ,0,0,,0,,0,,0,,0
1979-03-07 12:44:27.260 ,0,0,,0,,0,,0,,0
1979-03-07 12:44:39.260 ,0,0,,0,,0,,0,,0
1979-03-07 12:44:27.260 ,0,0,,0,,0,,0,,0
1979-03-07 12:44:39.260 ,0,0,,0,,0,,0,,0
1979-03-07 12:44:27.860 ,0,0,0.,12.0,0.,12.0,0.,12.0,0.,12.0
1979-03-07 12:44:39.860 ,0,0,1.,12.0,0.,12.0,0.,12.0,0.,12.0
1979-03-07 12:44:51.260 ,2,0,0.,12.0,0.,12.0,0.,12.0,0.,12.0
1979-03-07 12:45:03.260 ,2,0,2.,12.0,0.,12.0,0.,12.0,0.,12.0
1979-03-07 12:45:15.260 ,1,0,0.,12.0,0.,12.0,0.,12.0,0.,12.0
1979-03-07 12:45:27.260 ,1,0,0.,12.0,0.,12.0,0.,12.0,0.,12.0
1979-03-07 12:45:39.260 ,0,0,0.,12.0,0.,12.0,0.,12.0,0.,12.0
1979-03-07 12:45:51.260 ,0,0,0.,12.0,0.,12.0,0.,12.0,0.,12.0
1979-03-07 12:46:03.260 ,0,0,0.,12.0,0.,12.0,0.,12.0,0.,12.0
1979-03-07 12:46:15.260 ,0,0,0.,12.0,0.,12.0,0.,12.0,0.,12.0
1979-03-07 12:46:27.260 ,1,0,1.,12.0,0.,12.0,0.,12.0,0.,12.0
1979-03-07 12:46:39.260 ,1,0,0.,12.0,0.,12.0,0.,12.0,0.,12.0
1979-03-07 12:46:51.260 ,2,0,0.,12.0,0.,12.0,0.,12.0,0.,12.0
1979-03-07 12:47:03.260 ,2,0,0.,12.0,0.,12.0,0.,12.0,0.,12.0
1979-03-07 12:47:15.260 ,3,0,2.,12.0,0.,12.0,0.,12.0,0.,12.0
1979-03-07 12:47:27.260 ,3,0,0.,12.0,0.,12.0,0.,12.0,0.,12.0
1979-03-07 12:47:39.260 ,4,0,0.,12.0,0.,12.0,0.,12.0,0.,12.0
1979-03-07 12:47:51.260 ,4,0,0.,12.0,0.,12.0,0.,12.0,0.,12.0
1979-03-07 12:48:03.260 ,5,0,1.,12.0,0.,12.0,0.,12.0,0.,12.0
1979-03-07 12:48:15.260 ,5,0,1.,12.0,0.,12.0,0.,12.0,0.,12.0
1979-03-07 12:48:27.260 ,6,0,1.,12.0,0.,12.0,0.,12.0,0.,12.0
1979-03-07 12:48:39.260 ,6,0,0.,12.0,0.,12.0,0.,12.0,0.,12.0
1979-03-07 12:48:51.260 ,7,0,1.,12.0,0.,12.0,0.,12.0,0.,12.0
1979-03-07 12:49:03.260 ,7,0,0.,12.0,0.,12.0,0.,12.0,0.,12.0
1979-03-07 12:49:15.260 ,7,0,0.,12.0,0.,12.0,0.,12.0,0.,12.0
1979-03-07 12:49:27.260 ,7,0,0.,12.0,0.,12.0,0.,12.0,0.,12.0
1979-03-07 12:49:39.260 ,6,0,0.,12.0,0.,12.0,0.,12.0,0.,12.0
1979-03-07 12:49:51.260 ,6,0,0.,12.0,0.,12.0,0.,12.0,0.,12.0
1979-03-07 12:50:03.260 ,5,0,0.,12.0,0.,12.0,0.,12.0,0.,12.0
1979-03-07 12:50:15.260 ,5,0,0.,12.0,0.,12.0,0.,12.0,0.,12.0
1979-03-07 12:50:27.260 ,4,0,2.,12.0,0.,12.0,0.,12.0,0.,12.0
1979-03-07 12:50:39.260 ,4,0,0.,12.0,0.,12.0,0.,12.0,0.,12.0
1979-03-07 12:50:51.260 ,3,0,1.,12.0,0.,12.0,0.,12.0,0.,12.0
1979-03-07 12:51:03.260 ,3,0,1.,12.0,0.,12.0,0.,12.0,0.,12.0
1979-03-07 12:51:15.260 ,2,0,0.,12.0,0.,12.0,0.,12.0,0.,12.0
1979-03-07 12:51:27.260 ,2,0,0.,12.0,0.,12.0,0.,12.0,0.,12.0
1979-03-07 12:51:39.260 ,1,0,0.,12.0,0.,12.0,0.,12.0,0.,12.0
1979-03-07 12:51:51.260 ,1,0,1.,12.0,0.,12.0,0.,12.0,0.,12.0
1979-03-07 12:52:03.260 ,0,0,1.,12.0,0.,12.0,0.,12.0,0.,12.0
1979-03-07 12:52:15.260 ,0,0,1.,12.0,0.,12.0,0.,12.0,0.,12.0
1979-03-07 12:52:27.260 ,0,0,0.,12.0,0.,12.0,0.,12.0,0.,12.0
1979-03-07 12:52:39.260 ,0,0,0.,12.0,0.,12.0,0.,12.0,0.,12.0
1979-03-07 12:52:51.260 ,1,0,0.,12.0,0.,12.0,0.,12.0,0.,12.0
1979-03-07 12:53:03.260 ,1,0,0.,12.0,0.,12.0,0.,12.0,0.,12.0
1979-03-07 12:53:15.260 ,2,0,0.,12.0,0.,12.0,0.,12.0,0.,12.0
1979-03-07 12:53:27.260 ,2,0,0.,12.0,0.,12.0,0.,12.0,0.,12.0
1979-03-07 12:53:39.260 ,3,0,0.,12.0,0.,12.0,0.,12.0,0.,12.0
1979-03-07 12:53:51.260 ,3,0,1.,12.0,0.,12.0,0.,12.0,0.,12.0
1979-03-07 12:54:03.260 ,4,0,0.,12.0,0.,12.0,0.,12.0,0.,12.0
1979-03-07 12:54:15.260 ,4,0,1.,12.0,0.,12.0,0.,12.0,0.,12.0
1979-03-07 12:54:27.260 ,5,0,0.,12.0,0.,12.0,0.,12.0,0.,12.0
1979-03-07 12:54:39.260 ,5,0,1.,12.0,0.,12.0,0.,12.0,0.,12.0
1979-03-07 12:54:51.260 ,6,0,0.,12.0,0.,12.0,0.,12.0,0.,12.0
1979-03-07 12:55:03.260 ,6,0,0.,12.0,0.,12.0,0.,12.0,0.,12.0
1979-03-07 12:55:15.260 ,7,0,1.,12.0,0.,12.0,0.,12.0,0.,12.0
1979-03-07 12:55:27.260 ,7,0,0.,12.0,0.,12.0,0.,12.0,0.,12.0
1979-03-07 12:55:39.260 ,7,0,0.,12.0,0.,12.0,0.,12.0,0.,12.0
1979-03-07 12:55:51.260 ,7,0,0.,12.0,0.,12.0,0.,12.0,0.,12.0
1979-03-07 12:56:03.260 ,6,0,0.,12.0,0.,12.0,0.,12.0,0.,12.0
1979-03-07 12:56:15.260 ,6,0,0.,12.0,0.,12.0,0.,12.0,0.,12.0
1979-03-07 12:56:27.260 ,5,0,1.,12.0,0.,12.0,0.,12.0,0.,12.0
1979-03-07 12:56:39.260 ,5,0,1.,12.0,0.,12.0,0.,12.0,0.,12.0
1979-03-07 12:56:51.260 ,4,0,0.,12.0,0.,12.0,0.,12.0,0.,12.0
1979-03-07 12:57:03.260 ,4,0,0.,12.0,0.,12.0,0.,12.0,0.,12.0
1979-03-07 12:57:15.260 ,3,0,1.,12.0,0.,12.0,0.,12.0,0.,12.0
1979-03-07 12:57:27.260 ,3,0,1.,12.0,0.,12.0,0.,12.0,0.,12.0
1979-03-07 12:57:39.260 ,2,0,0.,12.0,0.,12.0,0.,12.0,0.,12.0
1979-03-07 12:57:51.260 ,2,0,0.,12.0,0.,12.0,0.,12.0,0.,12.0
1979-03-07 12:58:03.260 ,1,0,1.,12.0,0.,12.0,0.,12.0,0.,12.0
1979-03-07 12:58:15.260 ,1,0,0.,12.0,0.,12.0,0.,12.0,0.,12.0
1979-03-07 12:58:27.260 ,0,0,0.,12.0,0.,12.0,0.,12.0,0.,12.0
1979-03-07 12:58:39.260 ,0,0,0.,12.0,0.,12.0,0.,12.0,0.,12.0
1979-03-07 12:58:51.260 ,0,0,0.,12.0,0.,12.0,0.,12.0,0.,12.0
1979-03-07 12:59:03.260 ,0,0,0.,12.0,0.,12.0,0.,12.0,0.,12.0
1979-03-07 12:59:15.260 ,1,0,0.,12.0,0.,12.0,0.,12.0,0.,12.0
1979-03-07 12:59:27.260 ,1,0,0.,12.0,0.,12.0,0.,12.0,0.,12.0
1979-03-07 12:59:39.260 ,2,0,0.,12.0,0.,12.0,0.,12.0,0.,12.0
1979-03-07 12:59:51.260 ,2,0,0.,12.0,0.,12.0,0.,12.0,0.,12.0
1979-03-07 13:00:03.260 ,3,0,0.,12.0,0.,12.0,0.,12.0,0.,12.0
1979-03-07 13:00:15.260 ,3,0,0.,12.0,0.,12.0,0.,12.0,0.,12.0
1979-03-07 13:00:27.270 ,4,0,0.,12.0,0.,12.0,0.,12.0,0.,12.0
1979-03-07 13:00:39.270 ,4,0,1.,12.0,0.,12.0,0.,12.0,0.,12.0
1979-03-07 13:00:51.270 ,5,0,2.,12.0,0.,12.0,0.,12.0,0.,12.0
1979-03-07 13:01:03.270 ,5,0,1.,12.0,0.,12.0,0.,12.0,0.,12.0
1979-03-07 13:01:15.270 ,6,0,1.,12.0,0.,12.0,0.,12.0,0.,12.0
1979-03-07 13:01:27.270 ,6,0,0.,12.0,0.,12.0,0.,12.0,0.,12.0
1979-03-07 13:01:39.270 ,7,0,0.,12.0,0.,12.0,0.,12.0,0.,12.0
1979-03-07 13:01:51.270 ,7,0,0.,12.0,0.,12.0,0.,12.0,0.,12.0
1979-03-07 13:02:03.270 ,7,0,0.,12.0,0.,12.0,0.,12.0,0.,12.0
1979-03-07 13:02:15.270 ,7,0,0.,12.0,0.,12.0,0.,12.0,0.,12.0
1979-03-07 13:02:27.270 ,6,0,0.,12.0,0.,12.0,0.,12.0,0.,12.0
1979-03-07 13:02:39.270 ,6,0,1.,12.0,0.,12.0,0.,12.0,0.,12.0
1979-03-07 13:02:51.270 ,5,0,1.,12.0,0.,12.0,0.,12.0,0.,12.0
1979-03-07 13:03:03.270 ,5,0,0.,12.0,0.,12.0,0.,12.0,0.,12.0
1979-03-07 13:03:15.270 ,4,0,1.,12.0,0.,12.0,0.,12.0,0.,12.0
1979-03-07 13:03:27.270 ,4,0,0.,12.0,0.,12.0,0.,12.0,0.,12.0
1979-03-07 13:03:39.270 ,3,0,0.,12.0,0.,12.0,0.,12.0,0.,12.0
1979-03-07 13:03:51.270 ,3,0,0.,12.0,0.,12.0,0.,12.0,0.,12.0
1979-03-07 13:04:03.270 ,2,0,0.,12.0,0.,12.0,0.,12.0,0.,12.0
1979-03-07 13:04:15.270 ,2,0,0.,12.0,0.,12.0,0.,12.0,0.,12.0
1979-03-07 13:04:27.270 ,1,0,0.,12.0,0.,12.0,0.,12.0,0.,12.0
1979-03-07 13:04:39.270 ,1,0,0.,12.0,0.,12.0,0.,12.0,0.,12.0
1979-03-07 13:04:51.270 ,0,0,0.,12.0,0.,12.0,0.,12.0,0.,12.0
1979-03-07 13:05:03.270 ,0,0,0.,12.0,0.,12.0,0.,12.0,0.,12.0
1979-03-07 13:05:15.270 ,0,0,1.,12.0,0.,12.0,0.,12.0,0.,12.0
1979-03-07 13:05:27.270 ,0,0,0.,12.0,0.,12.0,0.,12.0,0.,12.0
1979-03-07 13:05:39.270 ,1,0,0.,12.0,0.,12.0,0.,12.0,0.,12.0
1979-03-07 13:05:51.270 ,1,0,0.,12.0,0.,12.0,0.,12.0,0.,12.0
1979-03-07 13:06:03.270 ,2,0,0.,12.0,0.,12.0,0.,12.0,0.,12.0
1979-03-07 13:06:15.270 ,2,0,0.,12.0,0.,12.0,0.,12.0,0.,12.0
1979-03-07 13:06:27.270 ,3,0,1.,12.0,0.,12.0,0.,12.0,0.,12.0
1979-03-07 13:06:39.270 ,3,0,0.,12.0,0.,12.0,0.,12.0,0.,12.0
1979-03-07 13:06:51.270 ,4,0,1.,12.0,0.,12.0,0.,12.0,0.,12.0
1979-03-07 13:07:03.270 ,4,0,1.,12.0,0.,12.0,0.,12.0,0.,12.0
1979-03-07 13:07:15.270 ,5,0,1.,12.0,0.,12.0,0.,12.0,0.,12.0
1979-03-07 13:07:27.270 ,5,0,0.,12.0,0.,12.0,0.,12.0,0.,12.0
1979-03-07 13:07:39.270 ,6,0,1.,12.0,0.,12.0,0.,12.0,0.,12.0
1979-03-07 13:07:51.270 ,6,0,0.,12.0,0.,12.0,0.,12.0,0.,12.0
1979-03-07 13:08:03.270 ,7,0,0.,12.0,0.,12.0,0.,12.0,0.,12.0
1979-03-07 13:08:15.270 ,7,0,0.,12.0,0.,12.0,0.,12.0,0.,12.0
1979-03-07 13:08:27.270 ,7,0,0.,12.0,0.,12.0,0.,12.0,0.,12.0
1979-03-07 13:08:39.270 ,7,0,0.,12.0,0.,12.0,0.,12.0,0.,12.0
1979-03-07 13:08:51.270 ,6,0,0.,12.0,0.,12.0,0.,12.0,0.,12.0
1979-03-07 13:09:03.270 ,6,0,0.,12.0,0.,12.0,0.,12.0,0.,12.0
1979-03-07 13:09:15.270 ,5,0,0.,12.0,0.,12.0,0.,12.0,0.,12.0
1979-03-07 13:09:27.270 ,5,0,0.,12.0,0.,12.0,0.,12.0,0.,12.0
1979-03-07 13:09:39.270 ,4,0,0.,12.0,0.,12.0,0.,12.0,0.,12.0
1979-03-07 13:09:51.270 ,4,0,1.,12.0,0.,12.0,0.,12.0,0.,12.0
1979-03-07 13:10:03.270 ,3,0,1.,12.0,0.,12.0,0.,12.0,0.,12.0
1979-03-07 13:10:15.270 ,3,0,0.,12.0,0.,12.0,0.,12.0,0.,12.0
1979-03-07 13:10:27.270 ,2,0,0.,12.0,0.,12.0,0.,12.0,0.,12.0
1979-03-07 13:10:39.270 ,2,0,1.,12.0,0.,12.0,0.,12.0,0.,12.0
1979-03-07 13:10:51.270 ,1,0,0.,12.0,0.,12.0,0.,12.0,0.,12.0
1979-03-07 13:11:03.270 ,1,0,0.,12.0,0.,12.0,0.,12.0,0.,12.0
1979-03-07 13:11:15.270 ,0,0,0.,12.0,0.,12.0,0.,12.0,0.,12.0
1979-03-07 13:11:27.270 ,0,0,0.,12.0,0.,12.0,0.,12.0,0.,12.0
1979-03-07 13:11:39.270 ,0,0,0.,12.0,0.,12.0,0.,12.0,0.,12.0
1979-03-07 13:11:51.270 ,0,0,0.,12.0,0.,12.0,0.,12.0,0.,12.0
1979-03-07 13:12:03.270 ,1,0,0.,12.0,0.,12.0,0.,12.0,0.,12.0
1979-03-07 13:12:15.270 ,1,0,0.,12.0,0.,12.0,0.,12.0,0.,12.0
1979-03-07 13:12:27.270 ,2,0,0.,12.0,0.,12.0,0.,12.0,0.,12.0
1979-03-07 13:12:39.270 ,2,0,0.,12.0,0.,12.0,0.,12.0,0.,12.0
1979-03-07 13:12:51.270 ,3,0,0.,12.0,0.,12.0,0.,12.0,0.,12.0
1979-03-07 13:13:03.270 ,3,0,1.,12.0,0.,12.0,0.,12.0,0.,12.0
1979-03-07 13:13:15.270 ,4,0,0.,12.0,0.,12.0,0.,12.0,0.,12.0
1979-03-07 13:13:27.270 ,4,0,1.,12.0,0.,12.0,0.,12.0,0.,12.0
1979-03-07 13:13:39.270 ,5,0,0.,12.0,0.,12.0,0.,12.0,0.,12.0
1979-03-07 13:13:51.270 ,5,0,1.,12.0,0.,12.0,0.,12.0,0.,12.0
1979-03-07 13:14:03.270 ,6,0,0.,12.0,0.,12.0,0.,12.0,0.,12.0
1979-03-07 13:14:15.270 ,6,0,0.,12.0,0.,12.0,0.,12.0,0.,12.0
1979-03-07 13:14:27.270 ,7,0,0.,12.0,0.,12.0,0.,12.0,0.,12.0
1979-03-07 13:14:39.270 ,7,0,0.,12.0,0.,12.0,0.,12.0,0.,12.0
1979-03-07 13:14:51.270 ,7,0,0.,12.0,0.,12.0,0.,12.0,0.,12.0
1979-03-07 13:15:03.270 ,7,0,0.,12.0,0.,12.0,0.,12.0,0.,12.0
1979-03-07 13:15:15.270 ,6,0,0.,12.0,0.,12.0,0.,12.0,0.,12.0
1979-03-07 13:15:27.270 ,6,0,0.,12.0,0.,12.0,0.,12.0,0.,12.0
1979-03-07 13:15:39.270 ,0,0,0.,12.0,0.,12.0,0.,12.0,0.,12.0
1979-03-07 13:15:51.270 ,0,0,0.,12.0,0.,12.0,0.,12.0,0.,12.0
1979-03-07 13:17:35.070 ,0,0,,0,,0,,0,,0
1979-03-07 13:17:47.070 ,0,0,,0,,0,,0,,0
1979-03-07 13:17:39.270 ,0,0,0.,12.0,0.,12.0,0.,12.0,0.,12.0
1979-03-07 13:17:51.270 ,0,0,0.,12.0,0.,12.0,0.,12.0,0.,12.0